Regional Weather Roundup
Issued by NWS

Home | Current Version | Previous Version | Graphics & Text | Print | Product List | Glossary On
Versions: 1 2 3 4 5 6 7 8 9 10 11 12 13 14 15 16 17 18 19 20 21 22 23 24 25 26 27 28 29 30 31 32 33 34 35 36 37 38 39 40 41 42 43 44 45 46 47 48 49 50
000
ASUS43 KOAX 070310
RWRNE

WEATHER ROUNDUP FOR NEBRASKA
NATIONAL WEATHER SERVICE OMAHA NE
1000 PM CDT MON JUL 06 2015

NOTES: SATELLITE DATA IS BEING USED TO AUGMENT CLOUD COVER ABOVE
       12000 FEET.
       "FAIR" INDICATES FEW OR NO CLOUDS BELOW 12,000 FEET WITH NO
       SIGNIFICANT WEATHER AND/OR OBSTRUCTIONS TO VISIBILITY.

  * THESE STATIONS DO NOT REPORT WEATHER SUCH AS RAIN...SNOW OR FOG.

NEZ001>004-019>022-054>056-070400-
NEBRASKA PANHANDLE

CITY           SKY/WX    TMP DP  RH WIND       PRES   REMARKS
SCOTTSBLUFF    CLOUDY    65  59  81 E3        30.22R HAZE
ALLIANCE       CLOUDY    64  56  75 NE5       30.21R
CHADRON        PTCLDY    64  58  80 NE3       30.19R
KIMBALL          N/A    N/A N/A N/A MISG        N/A
SIDNEY         CLOUDY    64  53  67 E6        30.25R HAZE
$$

NEZ057>060-069>072-079>082-070400-
SOUTHWEST NEBRASKA

CITY           SKY/WX    TMP DP  RH WIND       PRES   REMARKS
NORTH PLATTE   PTCLDY    64  55  72 NE3       30.18R
IMPERIAL       CLOUDY    66  52  60 NE6       30.20R
LEXINGTON      PTCLDY    64  55  72 N6        30.14R
MCCOOK         CLEAR     66  54  65 N10       30.15R HAZE
OGALLALA       CLOUDY    67  53  60 NE9       30.21R
$$

NEZ005>010-023>029-035>040-094-070400-
NORTH CENTRAL NEBRASKA

CITY           SKY/WX    TMP DP  RH WIND       PRES   REMARKS
VALENTINE      CLEAR     64  54  69 N6        30.17R
AINSWORTH      CLEAR     63  56  79 CALM      30.17R
BROKEN BOW     PTCLDY    65  55  70 N6        30.15R
O`NEILL        CLEAR     62  56  81 N7        30.15R
ORD            PTCLDY    63  54  72 N5        30.12R
THEDFORD       PTCLDY    63  56  79 CALM      30.20R
$$

NEZ041-046>049-061>064-073>077-083>087-070400-
SOUTH CENTRAL NEBRASKA

CITY           SKY/WX    TMP DP  RH WIND       PRES   REMARKS
GRAND ISLAND   CLEAR     65  56  72 N9        30.10R HAZE
AURORA         PTCLDY    67  61  83 N12       30.09R HAZE
HASTINGS       CLOUDY    67  57  70 N9        30.10R HAZE
HEBRON         PTCLDY    70  60  72 N8        30.05R HAZE
HOLDREGE       PTCLDY    64  56  77 N9        30.12R HAZE
KEARNEY *      CLEAR     64  54  68 N10       30.12R
YORK           PTCLDY    64  63  94 N8        30.08R FOG
$$

NEZ011>018-030>034-042>045-070400-
NORTHEAST NEBRASKA

CITY           SKY/WX    TMP DP  RH WIND       PRES   REMARKS
NORFOLK        CLEAR     67  58  72 N10       30.09R HAZE
ALBION         CLEAR     64  55  70 N7        30.11R
BLAIR          CLOUDY    69  59  70 N15G23    30.03R HAZE
FREMONT        PTCLDY    69  59  70 N9        30.05R HAZE
TEKAMAH        CLOUDY    69  60  73 N13       30.04R HAZE
WAYNE          PTCLDY    64  59  85 N6        30.10R HAZE
$$

NEZ050>053-065>068-078-088>093-070400-
SOUTHEAST NEBRASKA

CITY           SKY/WX    TMP DP  RH WIND       PRES   REMARKS
LINCOLN        CLOUDY    68  61  78 N9        30.04R HAZE
OMAHA EPPLEY   CLOUDY    67  64  90 N5        30.01R FOG
BEATRICE       CLOUDY    70  63  79 N12       30.02R HAZE
FALLS CITY     CLOUDY    69  65  86 N6        29.96R
NEBRASKA CITY  CLOUDY    69  57  65 N12       30.00R HAZE
PLATTSMOUTH    CLOUDY    67  58  73 N5        30.01R HAZE
$$

NEZ044-045-051>053-067-070400-
OMAHA AREA

CITY           SKY/WX    TMP DP  RH WIND       PRES   REMARKS
OMAHA EPPLEY   CLOUDY    67  64  90 N5        30.01R FOG
BLAIR          CLOUDY    69  59  70 N15G23    30.03R HAZE
FREMONT        PTCLDY    69  59  70 N9        30.05R HAZE
MILLARD        MOCLDY    71  64  77 N3        30.02R
PLATTSMOUTH    CLOUDY    67  58  73 N5        30.01R HAZE
WAHOO          CLOUDY    68  61  78 N10       30.04R HAZE
$$


USA.gov is the U.S. government's official web portal to all federal, state and local government web resources and services.